User: anonymous   Login
Location: Sternwarte Hubelmatt
(47.0367°N, 8.3053°E)
Time: 21:50:23
(UTC+02:00)
Language:

Max Valier Satellite - Orbit

View from above orbital plane
View from above orbital plane
View from above satellite
View from above satellite

Ground track
Ground track

The orbit data is extracted from the following two-line orbital elements,

1 42778U 17036P   24113.04364237  .00193745  00000-0  16595-2 0  9992
2 42778  97.1075 149.7903 0004925  85.1291 275.0533 15.68816542380729
Epoch (UTC): 22 April 2024 01:02:50
Eccentricity: 0.0004925
inclination: 97.1075°
perigee height: 359 km
apogee height: 365 km
right ascension of ascending node: 149.7903°
argument of perigee: 85.1291°
revolutions per day: 15.68816542
mean anomaly at epoch: 275.0533°
orbit number at epoch: 38072

The dashed part of the orbit path shows where the satellite is in the earth's shadow,  

DLR